This demonstration page uses our WeatherBlox Daily Observations layout. Learn more.

39.29038, -76.61219

Hourly Observations for December 20, 2017

Temp ( °F °C ) Dew Point ( °F °C ) Humidity (%) Winds ( mph kmh ) Pressure ( in mb ) Visibility ( mi km ) Precip ( " mm )
12:54 am 00:54 undefined 49 9.4 37 2.8 64 64 undefined N/A 29.8 1009 N/A 0 0
1:54 am 01:54 undefined 48 8.9 37 2.8 66 66 undefined N/A 29.83 1010 N/A 0 0
2:54 am 02:54 undefined 51 10.6 37 2.8 59 59 undefined N/A 29.85 1011 N/A 0 0
3:54 am 03:54 undefined 51 10.6 36 2.2 56 56 undefined N/A 29.85 1011 N/A 0 0
4:54 am 04:54 undefined 50 10 32 0 50 50 undefined N/A 29.88 1012 N/A 0 0
5:54 am 05:54 undefined 51 10.6 29 -1.7 43 43 undefined N/A 29.88 1012 N/A 0 0
6:54 am 06:54 undefined 50 10 29 -1.7 44 44 undefined N/A 29.91 1013 N/A 0 0
7:54 am 07:54 undefined 50 10 28 -2.2 43 43 undefined N/A 29.94 1014 N/A 0 0
8:54 am 08:54 undefined 49 9.4 28 -2.2 44 44 undefined N/A 29.97 1015 N/A 0 0
9:54 am 09:54 undefined 49 9.4 27 -2.8 43 43 undefined N/A 29.97 1015 N/A 0 0
10:54 am 10:54 undefined 50 10 26 -3.3 39 39 undefined N/A 29.97 1015 N/A 0 0
11:54 am 11:54 undefined 50 10 25 -3.9 38 38 undefined N/A 29.97 1015 N/A 0 0
12:54 pm 12:54 undefined 50 10 18 -7.8 28 28 undefined N/A 29.94 1014 N/A 0 0
1:54 pm 13:54 undefined 50 10 17 -8.3 27 27 undefined N/A 29.94 1014 N/A 0 0
2:54 pm 14:54 undefined 50 10 17 -8.3 27 27 undefined N/A 29.94 1014 N/A 0 0
3:54 pm 15:54 undefined 49 9.4 18 -7.8 29 29 undefined N/A 29.97 1015 N/A 0 0
4:54 pm 16:54 undefined 48 8.9 18 -7.8 30 30 undefined N/A 29.97 1015 N/A 0 0
5:54 pm 17:54 undefined 47 8.3 18 -7.8 31 31 undefined N/A 29.97 1015 N/A 0 0
6:54 pm 18:54 undefined 47 8.3 19 -7.2 33 33 undefined N/A 30 1016 N/A 0 0
7:54 pm 19:54 undefined 45 7.2 21 -6.1 39 39 undefined N/A 30.03 1017 N/A 0 0
8:54 pm 20:54 undefined 44 6.7 20 -6.7 38 38 undefined N/A 30.03 1017 N/A 0 0
9:54 pm 21:54 undefined 44 6.7 19 -7.2 37 37 undefined N/A 30.03 1017 N/A 0 0
10:54 pm 22:54 undefined 42 5.6 20 -6.7 41 41 undefined N/A 30.06 1018 N/A 0 0
11:54 pm 23:54 undefined 42 5.6 19 -7.2 40 40 undefined N/A 30.06 1018 N/A 0 0

Powered by AerisWeather